Regional Weather Roundup
Issued by NWS

Home | Current Version | Previous Version | Graphics & Text | Print | Product List | Glossary On
Versions: 1 2 3 4 5 6 7 8 9 10 11 12 13 14 15 16 17 18 19 20 21 22 23 24 25 26 27 28
000
ASUS45 KTFX 221410
RWRMT
MONTANA REGIONAL WEATHER ROUNDUP
NATIONAL WEATHER SERVICE GREAT FALLS MT
800 AM MDT TUE MAY 22 2018

NOTE: "FAIR" INDICATES FEW OR NO CLOUDS BELOW 12000 FEET WITH NO
SIGNIFICANT WEATHER AND/OR OBSTRUCTIONS TO VISIBILITY.

MTZ001>007-043-221500-
WEST OF THE DIVIDE

CITY           SKY/WX    TMP DP  RH WIND       PRES   REMARKS
KALISPELL      PTSUNNY   53  47  79 N6        30.00R
MISSOULA       FAIR      50  47  89 W5        30.01S
BUTTE          PTSUNNY   49  44  83 NW3       30.08R
MULLAN PASS    FAIR      53  42  66 CALM      30.07R
ANACONDA         N/A     50  45  81 CALM      30.07R
DEER LODGE       N/A     48  48 100 CALM      30.08R
HAMILTON         N/A     54  46  76 MISG      30.03R
PLAINS           N/A     51  48  89 CALM      30.01R
RONAN            N/A     54  52  94 NE3       30.01R
$$

MTZ008-052>055-221500-
SOUTHWEST MONTANA

CITY           SKY/WX    TMP DP  RH WIND       PRES   REMARKS
BOZEMAN        FAIR      52  48  86 CALM      30.05R
DILLON         CLOUDY    49  46  90 SW6       30.05R
ENNIS          MOSUNNY   48  45  87 S7        30.09R
W YELLOWSTONE  PTSUNNY   41  41 100 CALM      30.09S
TWIN BRIDGES     N/A     49  43  80 N1        30.03R
$$

MTZ009-010-012-014-046-048-049-054-221500-
EAST SLOPES AND CENTRAL MONTANA

CITY           SKY/WX    TMP DP  RH WIND       PRES   REMARKS
CUT BANK       FAIR      55  47  74 W3        30.02R
GREAT FALLS    CLOUDY    60  50  69 SW3       30.01R
MALMSTROM AFB  PTSUNNY   59  49  69 W6        30.00R
HELENA         CLOUDY    55  51  86 CALM      30.03R
AUGUSTA        FAIR      56  48  76 NW6       30.04R
BOWMANS CRNR   LGT RAIN  53  47  81 W3        30.02R
CHOTEAU          N/A     55  48  76 W6        30.04S
POWER          LGT RAIN  56  48  73 NW5       30.01R
RAYNESFORD     LGT RAIN  55  50  82 SE9       30.02S
ULM            PTSUNNY   56  53  89 CALM      30.01R
WHITE SULPHUR    N/A     50  48  93 CALM      30.05R
$$

MTZ011-013-016-021-045-047-050-051-221500-
NORTH CENTRAL MONTANA

CITY           SKY/WX    TMP DP  RH WIND       PRES   REMARKS
HAVRE          FAIR      57  51  80 CALM      29.96R
LEWISTOWN      PTSUNNY   54  51  90 CALM      30.02R
N BAR RANCH    PTSUNNY   55  48  76 W9        30.04S
CHINOOK          N/A     59  52  77 SW5       29.96S
DENTON         PTSUNNY   59  51  76 NW6       29.97R
GEYSER         CLOUDY    58  49  74 SW8       30.02R
GRASS RANGE    PTSUNNY   58  51  77 W9        29.97R
JUDITH GAP     PTSUNNY   54  49  83 N3        30.04R
ROY            PTSUNNY   60  52  74 W15       29.97R
STANFORD       PTSUNNY   57  49  74 NW5       30.03R
WINIFRED       PTSUNNY   57  52  83 W6        29.99R
$$

MTZ017>020-022>027-061-062-221500-
NORTHEAST MONTANA

CITY           SKY/WX    TMP DP  RH WIND       PRES   REMARKS
GLASGOW        CLOUDY    64  55  72 NW5       29.91R
GLENDIVE       CLOUDY    60  56  86 W7        29.94R
JORDAN           N/A     63  53  70 CALM      29.94R
MALTA          SUNNY     63  52  67 CALM      29.91R
WOLF POINT     PTSUNNY   63  55  75 CALM      29.91R
PLENTYWOOD       N/A     61  48  63 CALM      29.91R
POPLAR           N/A     63  54  72 W5        29.92R
SCOBEY           N/A     64  48  56 S1        29.90S
$$

MTZ028>42-056>058-221500-
SOUTHCENTRAL AND SOUTHEAST MONTANA

CITY           SKY/WX    TMP DP  RH WIND       PRES   REMARKS
BAKER          CLOUDY    56  54  93 N7        29.95F
BILLINGS       FAIR      57  52  83 SW9       30.00R
LIVINGSTON     PTSUNNY   51  48  89 CALM      30.04R
MILES CITY     FAIR      62  59  90 CALM      29.94R
BIG TIMBER     SUNNY     52  48  87 W10       30.05S
EKALAKA          N/A     57  51  80 S6        29.95S
FORSYTH          N/A     61  57  88 W8        29.96R
HARLOWTON      PTSUNNY   53  51  90 W7        30.03R
LAUREL           N/A     55  52  88 SW7       30.01S
$$

REGIONAL REPORTS...DAKOTAS

CITY           SKY/WX    TMP DP  RH WIND       PRES   REMARKS
WILLISTON      FAIR      64  51  62 S7        29.91R
MINOT          FAIR      69  47  45 S9        29.91S
DICKINSON      FAIR      64  32  30 S13       29.94R
BEACH          FAIR      63  57  82 SW8       29.98R
CROSBY         FAIR      66  46  48 S13       29.89F
TIOGA          FAIR      66  50  55 S6        29.93S
WATFORD CITY   FAIR      64  50  59 W3        29.92R
BISMARCK       FAIR      60  55  83 SE3       29.97R
GRAND FORKS    FAIR      62  58  86 S9        29.97S
FARGO          CLOUDY    57  57 100 S10       30.00S FOG
BUFFALO SD       N/A     62  50  64 NE6       29.90R
RAPID CITY     FAIR      65  51  60 CALM      29.96R
$$

REGIONAL REPORTS...WYOMING/IDAHO/WASHINGTON

CITY           SKY/WX    TMP DP  RH WIND       PRES   REMARKS
GILLETTE         N/A     61  51  70 N6        30.02R
SHERIDAN       FAIR      60  50  69 W6        30.02R
BUFFALO WY     FAIR      57  46  66 CALM      30.06R
CODY           FAIR      57  45  64 SW5       30.06R
YELLOWSTONE LA   N/A     40  34  79 CALM      30.17R
IDAHO FALLS    CLOUDY    50  47  89 N6        29.99R
SALMON         CLOUDY    54  48  80 CALM      30.02R
BOISE          FAIR      59  52  77 S5        29.91R
SPOKANE        FAIR      59  53  80 NE5       29.96R
$$

REGIONAL REPORTS...ALBERTA

CITY           SKY/WX    TMP DP  RH WIND       PRES   REMARKS
CALGARY        MOSUNNY   55  41  58 SW3       30.03R
CARDSTON         N/A     54  45  71 SW3         N/A
EDMONTON       SUNNY     63  43  48 N3        29.97R
FORT MCMURRAY  SUNNY     66  46  48 SW8       29.87S
HIGH LEVEL     PTSUNNY   55  43  62 S3        29.77R
LETHBRIDGE     MOSUNNY   54  46  76 SW6       30.01R
LLOYDMINSTER   MOSUNNY   64  46  52 NW10      29.95R
MEDICINE HAT   MOSUNNY   61  45  55 VRB2      29.97R
MILK RIVER       N/A     55  48  76 NW8         N/A
PEACE RIVER    PTSUNNY   57  39  51 S7        29.92S
PINCHER CREEK    N/A     52  41  66 W6        30.04R
WATERTON GATE    N/A     54  41  62 SW6         N/A
$$

REGIONAL REPORTS...SASKATCHEWAN

CITY           SKY/WX    TMP DP  RH WIND       PRES   REMARKS
CORONACH         N/A     63  50  63 E1          N/A
CYPRESS HILLS    N/A     63  37  39 N3          N/A
ESTEVAN        PTSUNNY   68  43  40 S10       29.89S
PRINCE ALBERT  PTSUNNY   61  50  67 W5        29.92R
REGINA         MOSUNNY   66  46  48 N6        29.89R
ROCKGLEN         N/A     63  46  55 NW6         N/A
SASKATOON      PTSUNNY   57  52  82 W7        29.91R
SWIFT CURRENT  SUNNY     61  46  59 W9        29.93R
VAL MARIE        N/A     64  50  59 N9          N/A
$$




USA.gov is the U.S. government's official web portal to all federal, state and local government web resources and services.